星链-5447 (STARLINK-5447 )

导读

STARLINK-5447是美国SpaceX公司星链(Starlink)项目的卫星,于2022年12月17日发射升空,属于星链低轨互联网星座的组成部分。它运行在近地轨道,旨在为全球偏远地区提供低延迟高速宽带互联网接入服务,助力实现全球无缝网络覆盖,是星链大规模组网计划中的一颗量产卫星,推动卫星互联网服务的商业化落地。

Basic Information
目录编号:
54779
目录名称:
STARLINK-5447
国际标识:
2022-175X
轨道中心:
EARTH
卫星名称:
星链-5447
卫星全名:
星链-5447 (STARLINK-5447 )
卫星状态:
在轨 (已飞行1357 天)
发射日期:
2022-12-17 UTC
国别 :
美国 (US)
星等 :
--
Orbit Information
数据来源 国际轨道数据 AOE轨道数据
星历时间 2026-09-03T04:43:05+0800
1天前
查看轨道信息
2026-09-01T02:00:00+0800
3天前
查看轨道信息
半长轴 6840.87km 6840.859km
偏心率 0.0001077 0.0001459
轨道倾角 53.160° 53.158°
近地点辐角 101.166° 52.233°
升交点赤经 302.196° 312.074°
平近点角 258.946° 148.154°
近地点 461.996km 461.723km
远地点 463.47km 463.721km
周期 93.848分钟 93.848分钟
每日圈数 15.343903 15.34394
Detailed Information
固有亮度:
5
最大亮度:
2.5
卫星平台:
Starlink v1.5
覆盖范围:
全球
运营商:
太空探索技术公司
运营商所在国:
美国
制造商(研发单位):
太空探索技术公司
制造商所在国:
美国
使用方式:
暂无
Satellite Introduction
星链(Starlink)计划是由太空探索技术公司(SpaceX)提出的一个巨型低轨卫星互联网星座项目,计划在2019年至2024年间在太空搭建由约1.2万颗卫星组成的“星链”网络,其中1584颗将部署在地球上空550千米处的近地轨道,并从2020年开始工作。该卫星仍在工作。
2D Orbit Map
3D Orbit Map
Orbit Altitude Analysis Chart
Orbit Inclination Analysis Chart
Orbit Comprehensive Analysis Chart
View Comprehensive Chart
Conjunction Data List
Event ID Objects TCA Miss Dist (km) Collision Risk Probability Collision Risk Index (CRI) Action
CDM_260905-034505-477906-856721
2026-09-05T
03:45:37+0000
0.547 km
远距离
8.312165E-5 中风险 0.73
CDM_260905-020905-477906-461121
2026-09-05T
02:09:25+0000
0.683 km
远距离
5.701166E-5 中风险 0.7
CDM_260905-003505-477906-461121
2026-09-05T
00:35:37+0000
1.696 km
极远距离
2.840843E-6 低风险 0.44
CDM_260905-051905-477906-856721
2026-09-05T
05:19:25+0000
1.877 km
极远距离
1.675044E-6 低风险 0.39
CDM_260903-011705-314005-477921
2026-09-03T
01:17:32+0000
2.843 km
极远距离
1.25284E-6 低风险 0.37
CDM_260903-094005-477906-417421
2026-09-03T
09:40:35+0000
2.278 km
极远距离
1.076758E-6 低风险 0.36
CDM_260905-105005-477906-508621
2026-09-05T
10:50:00+0000
1.843 km
极远距离
1.056556E-6 低风险 0.35
CDM_260905-021105-477906-856721
2026-09-05T
02:11:49+0000
2.752 km
极远距离
7.966337E-7 极低风险 0.33
CDM_260905-082905-477906-508621
2026-09-05T
08:29:19+0000
2.857 km
极远距离
4.868018E-7 极低风险 0.29